SES-21

Last updated on Sat Dec 13 2025 00:02:51 GMT+0000 (Coordinated Universal Time)

1 53961U 22123B 25345.67967558 .00000077 00000+0 00000+0 0 9998 2 53961 0.0251 32.1891 0000923 224.6050 297.5510 1.00269448 5335
UTC large
Height (km)
Speed (km/s)
/
Latitude / Longitude
Inclination (degrees)
Orbital Period (minutes)
Azimuth
Elevation
Range (km)
Doppler Factor

Next 0 passes for location: London (51.5072 / 0.1276)

Sorry there are no passes over London.